Regional Weather Roundup
Issued by NWS

Home | Current Version | Previous Version | Graphics & Text | Print | Product List | Glossary On
Versions: 1 2 3 4 5 6 7 8 9 10 11 12 13 14 15 16 17 18 19 20 21 22 23 24 25 26 27 28 29 30 31 32 33 34 35 36 37 38 39 40 41 42 43 44 45 46 47 48 49 50
000
ASUS43 KMPX 270810
RWRMN
WEATHER ROUNDUP FOR MINNESOTA
NATIONAL WEATHER SERVICE TWIN CITIES/CHANHASSEN MN
300 AM CDT MON APR 27 2015


NOTE: "FAIR" INDICATES FEW OR NO CLOUDS BELOW 12,000 FEET WITH NO
SIGNIFICANT WEATHER AND/OR OBSTRUCTIONS TO VISIBILITY. N/A MEANS
CURRENT SKY AND/OR WEATHER CONDITIONS ARE NOT AVAILABLE.

MNZ060>063-068>070-270900-
   Twin Cities Metro

CITY           SKY/WX    TMP DP  RH WIND       PRES   REMARKS
TWIN CITIES    CLEAR     41  32  70 CALM      30.18R
ST PAUL        CLEAR     43  27  53 CALM      30.18R
CRYSTAL        CLEAR     38  27  64 CALM      30.17R
BLAINE         CLEAR     37  28  70 CALM      30.17S
LAKEVILLE      CLEAR     37  27  65 CALM      30.17R
EDEN PRAIRIE   CLEAR     44  25  47 CALM      30.17R
SOUTH ST PAUL  CLEAR     42  29  58 CALM      30.17R
LAKE ELMO      FAIR      36  30  80 CALM      30.18R
$$
MNZ001>005-007-008-013>017-022>024-027-028-270900-
   Northwest Minnesota

CITY           SKY/WX    TMP DP  RH WIND       PRES   REMARKS
BEMIDJI        FAIR      31  23  71 CALM      30.17S
HALLOCK        PTCLDY    39  21  48 S6        30.16R
ROSEAU         PTCLDY    36  28  75 CALM      30.18S
WARROAD        CLEAR     34  28  80 CALM      30.18S
THIEF RVR FALL CLEAR     43  21  42 S3        30.18S
CROOKSTON      CLEAR     43  25  49 SE9       30.18R
FOSSTON        CLEAR     37  25  60 SE3       30.18S
DETROIT LAKES  CLEAR     43  28  56 CALM        N/A
MOORHEAD       CLEAR     43  21  42 S7        30.19R
PARK RAPIDS    CLEAR     32  25  75 CALM      30.17S
MAHNOMEN       FAIR      41  23  48 S5        30.17S
$$
MNZ006-009>011-018-025>026-270900-
   North Central Minnesota

CITY           SKY/WX    TMP DP  RH WIND       PRES   REMARKS
BAUDETTE       CLEAR     34  28  79 CALM      30.18S
FLAG ISLAND    CLEAR     41  34  75 CALM      30.17F
INTL FALLS     CLEAR     28  22  78 CALM      30.18F
WASKISH        CLEAR     30  27  86 CALM      30.18S
BIG FORK       FAIR      28  21  74 CALM      30.19S
LONGVILLE      CLEAR     28  27  93 CALM      30.17S
GRAND RAPIDS   CLEAR     30  18  59 CALM      30.18S
CRANE LAKE     CLEAR     25  23  93 CALM      30.21S
ORR            FAIR      28  21  74 CALM      30.17R
COOK           CLEAR     27  21  80 CALM      30.19S
WALKER         FAIR      31  22  71 W3        30.17S
$$
MNZ012-019>021-037-270900-
   Northeast Minnesota

CITY           SKY/WX    TMP DP  RH WIND       PRES   REMARKS
DULUTH         CLEAR     30  22  72 CALM      30.17F
ELY            CLEAR     27  25  93 CALM      30.19S
HIBBING        CLEAR     26  19  74 CALM      30.18S
EVELETH        CLEAR     28  23  80 CALM      30.18S
DULUTH HARBOR  CLEAR     36  30  80 CALM      30.20F
TWO HARBORS    CLEAR     30  25  80 CALM      30.17S
SILVER BAY     CLEAR     27  23  86 CALM      30.17F
GRAND MARAIS     N/A     41  27  57 CALM      30.17F
G MARAIS ARPRT CLEAR     30  21  69 N5        30.17S WCI  25
$$
MNZ029>031-032-039>041-046>048-054>057-064-270900-
   West Central Minnesota

CITY           SKY/WX    TMP DP  RH WIND       PRES   REMARKS
FERGUS FALLS   CLEAR     43  23  45 CALM      30.21R
WHEATON        CLEAR     36  21  55 CALM      30.22R
MORRIS         CLEAR     39  21  48 CALM      30.19R
ALEXANDRIA     CLEAR     36  30  79 CALM      30.20R
ELBOW LAKE     FAIR      43  35  73 CALM      30.19R
WADENA         CLEAR     32  25  74 CALM      30.19R
GLENWOOD       CLEAR     41  21  45 CALM      30.20R
APPLETON       CLEAR     34  27  75 CALM      30.20R
BENSON         CLEAR     30  25  80 CALM      30.20R
ORTONVILLE     CLEAR     41  23  48 W3        30.19S
MADISON        CLEAR     36  23  60 CALM      30.20S
WILLMAR        FAIR      37  27  65 CALM      30.21R
$$
MNZ033>034-036-042>043-049>051-058-059-270900-
   Central Minnesota

CITY           SKY/WX    TMP DP  RH WIND       PRES   REMARKS
ST CLOUD       CLEAR     32  24  72 NW3       30.18R
SAUK CENTRE    FAIR      33  26  76 W3        30.20R
PAYNESVILLE    CLEAR     30  26  86 SW3       30.20R
AITKIN         CLEAR     28  23  80 CALM      30.17S
PINE RIVER     CLEAR     28  25  86 CALM      30.21S
BRAINERD       CLEAR     30  24  78 CALM      30.18S
STAPLES        CLEAR     30  25  80 CALM      30.18R
LONG PRAIRIE   FAIR      34  27  75 CALM      30.19R
LITTLE FALLS   CLEAR     32  27  80 CALM      30.19R
LITCHFIELD     CLEAR     39  30  70 CALM      30.20R
BUFFALO        CLEAR     36  28  72 CALM      30.19R
MAPLE LAKE     CLEAR     34  29  81 CALM      30.19R
$$
MNZ037-044-045-052-053-270900-
   East Central Minnesota

CITY           SKY/WX    TMP DP  RH WIND       PRES   REMARKS
PRINCETON      CLEAR     34  27  75 CALM      30.18S
MORA           CLEAR     30  25  80 CALM      30.19F
CAMBRIDGE      CLEAR     34  25  69 CALM      30.16S
RUSH CITY      CLEAR     37  25  61 CALM      30.18S
MOOSE LAKE     CLEAR     30  27  86 CALM      30.17S
HINCKLEY       FAIR      34  25  69 N3        30.18S
CLOQUET        CLEAR     28  21  74 CALM      30.18S
MCGREGOR       CLEAR     32  28  86 CALM      30.19S
$$
MNZ071>073-080-081-089-090-097-098-270900-
   Southwest Minnesota

CITY           SKY/WX    TMP DP  RH WIND       PRES   REMARKS
MONTEVIDEO     CLEAR     39  21  48 CALM      30.20S
GRANITE FALLS  CLEAR     33  20  57 CALM      30.21S
CANBY          CLEAR     34  28  77 CALM      30.20S
MARSHALL       CLEAR     37  19  48 N3        30.18F
REDWOOD FALLS  CLEAR     44  22  41 CALM      30.18R
OLIVIA         CLEAR     32  19  59 NE3       30.19R
PIPESTONE      CLEAR     37  21  52 E3        30.16F
WINDOM         CLEAR     36  23  60 CALM      30.17S
WORTHINGTON    CLEAR     34  21  60 NW5       30.17S WCI  30
JACKSON        CLEAR     37  23  56 VRB5      30.17R
TRACY          CLEAR     40  20  44 W3        30.18S
SLAYTON        CLEAR     33  21  61 CALM      30.18S
$$
MNZ065>067-074>077-082>085-091>093-270900-
   South Central Minnesota

CITY           SKY/WX    TMP DP  RH WIND       PRES   REMARKS
MANKATO        CLEAR     45  25  45 E5        30.17S
NEW ULM        CLEAR     46  21  36 E3        30.18S
ST JAMES       CLEAR     34  23  64 NW3       30.18S
FAIRMONT       CLEAR     37  27  65 NW6       30.15S
GLENCOE        CLEAR     38  27  66 CALM      30.18R
FARIBAULT      CLEAR     36  27  69 CALM      30.17R
OWATONNA       CLEAR     36  23  60 CALM      30.16S
WASECA         CLEAR     37  27  65 NE6       30.17S
ALBERT LEA     CLEAR     41  28  60 N3        30.15S
$$
MNZ078>079-086>088-094>096-270900-
   Southeast Minnesota

CITY           SKY/WX    TMP DP  RH WIND       PRES   REMARKS
ROCHESTER      CLEAR     42  25  50 N7        30.15R
RED WING       CLEAR     37  27  65 W3        30.15S
STANTON        CLEAR     35  27  73 S3        30.16R
DODGE CENTER   CLEAR     43  27  52 N5        30.15S
WINONA         CLEAR     41  32  70 CALM      30.15R
AUSTIN         CLEAR     39  28  65 CALM      30.14S
PRESTON        CLEAR     38  27  63 N6        30.14S
$$
ABBREVIATIONS USED IN REMARKS
   TC - TEMPERATURES IN CELSIUS
  WCI - WIND CHILL INDEX
   HX - HEAT INDEX
  VSB - VISIBILITY
$$



USA.gov is the U.S. government's official web portal to all federal, state and local government web resources and services.